Tracking 25710 objects as of 6-Jul-2022
HD Live streaming from Space Station
objects crossing your sky now

COSMOS 1934

Track COSMOS 1934 now!
10-day predictions
COSMOS 1934 is classified as:


NORAD ID: 18985
Int'l Code: 1988-023A
Perigee: 953.6 km
Apogee: 1,013.4 km
Inclination: 83.0 °
Period: 104.6 minutes
Semi major axis: 7354 km
RCS: 2.9931 m2 (large)
Launch date: March 22, 1988
Source: Commonwealth of Independent States (former USSR) (CIS)
Launch site: PLESETSK MISSILE AND SPACE COMPLEX (PKMTR)
aabbcc
Your satellite tracking list
Your tracking list is empty




NASA's NSSDC Master Catalog

Two Line Element Set (TLE):
1 18985U 88023A   22187.41076169  .00000049  00000-0  34033-4 0  9996
2 18985  82.9566 143.9045 0040636 200.5278 159.4248 13.76484280597645
Source of the keplerian elements: AFSPC